Probability
0 0 0 0 0 0 0 0 0 0 0 0 0 0 0 0 0 0 1 1 0 0 0 0 0 0 0 0 0 0 0 0 0 0 0 0 0 0
0 0 0 0 0 0 0 0 0 0 0 0 0 0 0 0 0 1 2 2 1 0 0 0 0 0 0 0 0 0 0 0 0 0 0 0 0 0
0 0 0 0 0 0 0 0 0 0 0 0 0 0 0 0 0 1 2 2 1 0 0 0 0 0 0 0 0 0 0 0 0 0 0 0 0 0
0 0 0 0 0 0 0 0 0 0 0 0 0 0 0 0 0 0 1 2 1 0 0 0 0 0 0 0 0 0 0 0 0 0 0 0 0 0
0 0 0 0 0 0 0 0 0 0 0 0 0 0 0 0 0 0 0 1 1 0 0 0 0 0 0 0 0 0 0 0 0 0 0 0 0 0
0 0 1 1 1 1 1 0 0 0 0 0 0 0 0 0 0 0 0 0 0 0 0 0 0 0 0 0 0 0 0 0 0 0 0 0 0 0
1 1 2 2 2 2 1 0 0 0 0 0 0 0 0 0 0 0 0 0 0 0 0 0 0 0 0 0 0 0 0 0 0 0 0 0 0 0
2 3 3 3 2 1 0 0 0 0 0 0 0 0 0 0 0 0 0 0 0 0 0 0 0 0 0 0 0 0 0 0 0 0 0 0 0 0
2 3 3 2 1 0 0 0 0 0 0 0 0 0 0 0 0 0 0 0 0 0 0 0 0 0 0 0 0 0 0 0 0 0 0 0 0 0
1 1 2 1 0 0 0 0 0 0 0 0 0 0 0 0 0 0 0 0 0 0 0 0 0 0 0 0 0 0 0 0 0 0 0 0 0 0
0 0 0 0 0 0 0 0 0 0 0 0 0 0 0 0 0 0 0 0 0 0 0 0 0 0 0 0 0 0 0 0 0 0 0 0 0 0
0 0 0 0 0 0 0 0 0 0 0 0 0 0 0 0 0 0 0 0 0 0 0 0 0 0 0 0 0 0 0 0 0 0 0 0 0 0
0 0 0 0 0 0 0 0 0 0 0 0 0 0 0 0 0 0 0 0 0 0 0 0 0 0 0 0 0 0 0 0 0 0 0 0 0 0
0 0 0 0 0 0 0 0 0 0 0 0 0 0 0 0 0 0 0 0 0 0 0 0 0 0 0 0 0 0 0 0 0 0 0 0 0 0
0 0 0 0 0 0 0 0 0 0 0 0 0 0 0 0 0 0 0 0 0 0 0 0 0 0 0 0 0 0 0 0 0 0 0 0 0 0
0 0 0 0 0 0 0 0 0 0 0 0 0 0 0 0 0 0 0 0 0 0 0 0 0 0 0 0 0 0 0 0 0 0 0 0 0 0
0 0 0 0 0 0 0 0 0 0 0 0 0 0 0 0 0 0 0 0 0 0 0 0 0 0 0 0 0 0 0 0 0 0 0 0 0 0
0 0 0 0 0 0 0 0 0 0 0 0 0 0 0 0 0 0 0 0 0 0 0 0 0 0 0 0 0 0 0 0 0 0 0 0 0 0
0 0 0 0 0 0 0 0 0 0 0 0 0 0 0 0 0 0 0 0 0 0 0 0 0 0 0 0 0 0 0 0 0 0 0 0 0 0
0 0 0 0 0 0 0 0 0 0 0 0 0 0 0 0 0 0 0 0 0 0 0 0 0 0 0 0 0 0 0 0 0 0 0 0 0 0
0 0 0 0 0 0 0 0 0 0 0 0 0 0 0 0 0 0 0 0 0 0 0 0 0 0 0 0 0 0 0 0 0 0 0 0 0 0
0 0 0 0 0 0 0 0 0 0 0 0 0 0 0 0 0 0 0 0 0 0 0 0 0 0 0 0 0 0 0 0 0 0 0 0 0 0
0 0 0 0 0 0 0 0 0 0 0 0 0 0 0 0 0 0 0 0 0 0 0 0 0 0 0 0 0 0 0 0 0 0 0 0 0 0
Wind_Speed
2 2 2 2 2 2 2 3 3 2 2 2 1 1 1 0 1 1 2 3 5 6 6 6 5 4 4 4 4 4 4 5 5 6 6 6 6 7
0 1 1 1 1 1 1 1 2 3 2 1 1 1 1 1 1 0 1 1 3 4 5 5 5 5 4 3 3 3 3 3 4 5 5 5 5 5
1 0 1 1 1 1 0 0 0 1 2 1 1 1 1 1 2 1 1 1 0 2 3 4 4 4 3 3 2 2 1 2 2 3 3 3 3 4
2 2 2 1 1 1 1 1 0 1 2 1 1 1 1 1 2 2 2 2 1 2 2 2 2 2 1 1 1 0 1 1 2 1 1 1 2 2
4 3 3 3 3 2 2 2 1 2 1 2 0 1 1 2 2 3 3 2 3 4 5 5 4 4 3 3 3 3 2 2 2 2 1 1 1 1
5 4 4 4 4 3 3 3 2 3 2 2 2 1 1 2 2 2 2 2 3 4 5 5 7 7 7 6 5 5 5 5 5 4 4 3 2 2
5 5 6 8 9 6 4 3 4 3 3 3 2 2 3 2 2 1 1 1 2 3 3 4 3 3 4 6 6 6 6 7 7 7 7 7 7 6
5 5 6 7 10 11 12 10 7 4 3 3 2 2 2 1 1 2 1 2 2 2 3 3 3 3 2 2 5 7 7 7 7 7 8 7 7 7
5 5 5 7 7 6 8 11 11 11 7 3 3 2 1 1 1 2 2 2 1 1 2 2 2 2 2 3 5 5 6 6 6 6 6 7 6 6
6 5 5 5 6 6 6 7 7 7 7 5 3 2 2 1 2 1 2 2 2 2 2 2 1 2 3 3 5 6 6 5 5 5 5 5 5 5
6 7 6 6 8 8 7 6 6 5 7 9 7 6 7 6 4 3 3 3 2 2 2 2 1 1 2 2 3 5 5 5 5 5 4 4 3 3
5 6 9 8 9 8 6 5 5 4 4 5 7 8 6 7 7 4 2 3 2 1 2 2 1 1 1 2 1 2 2 3 4 4 4 4 3 2
4 4 4 9 9 9 7 5 4 3 4 4 4 5 5 5 5 4 3 2 2 0 1 1 1 1 1 1 2 1 1 1 2 3 3 3 2 2
3 2 3 8 9 9 7 7 8 6 4 4 4 4 4 4 3 4 4 3 2 1 1 1 2 1 1 1 1 2 1 1 1 1 1 2 3 3
3 5 7 8 8 7 9 9 7 5 4 4 3 3 2 2 3 3 5 4 5 4 3 2 2 1 2 1 0 1 1 2 1 1 1 1 1 1
4 5 7 9 8 7 6 6 5 4 3 3 2 2 3 3 4 3 3 3 4 5 5 4 3 2 2 1 1 1 1 1 1 1 1 1 1 1
3 4 4 4 5 4 4 4 4 5 4 3 3 3 3 3 3 3 2 3 3 2 4 4 4 3 2 1 1 1 1 1 1 1 1 1 2 1
5 4 3 3 3 3 3 4 4 4 3 3 3 3 3 2 3 3 3 3 2 2 2 2 3 4 4 3 1 0 1 1 1 1 1 1 2 2
5 3 2 2 2 2 2 2 2 2 2 3 3 3 2 3 2 3 3 3 2 2 2 2 2 2 2 3 5 2 0 1 1 2 1 0 1 3
3 2 2 2 2 2 2 2 2 3 3 3 3 3 3 2 3 2 2 2 2 2 2 3 2 0 1 2 2 3 3 0 0 1 1 1 1 2
2 2 2 2 2 2 2 2 3 3 3 3 3 3 3 2 2 2 2 3 2 2 2 3 3 3 0 1 1 3 3 3 1 1 1 0 1 2
3 3 2 2 3 3 3 3 3 3 3 3 3 3 3 2 2 2 2 2 2 1 2 3 3 3 2 1 1 3 3 4 4 4 1 3 3 3
3 3 2 2 2 3 3 3 4 3 2 3 3 3 3 2 2 2 2 2 2 2 2 3 3 2 2 1 1 2 2 3 2 3 4 5 4 5
Wind_Direction
249 256 251 249 229 216 200 189 192 232 261 251 276 326 295 219 239 194 207 194 196 198 204 207 208 212 217 218 221 225 233 240 245 246 245 243 244 247
290 288 277 283 278 262 212 211 194 198 233 253 254 303 340 5 51 89 152 157 184 195 202 202 202 206 207 208 214 224 232 243 250 251 244 245 250 251
14 0 308 316 348 339 338 135 150 165 206 266 318 329 30 30 24 40 77 91 108 183 194 197 198 197 193 198 205 228 265 287 285 271 258 253 253 251
45 43 22 38 41 31 56 68 90 141 165 206 343 358 6 11 34 42 50 62 60 69 108 135 135 124 116 104 80 11 329 323 315 306 298 276 257 253
56 52 40 53 46 40 52 53 51 61 92 129 61 10 12 18 33 45 50 41 59 61 66 66 74 83 81 73 61 47 38 24 12 2 360 356 336 321
51 47 46 54 52 46 51 46 60 67 71 85 66 34 29 17 47 48 41 34 42 44 48 57 61 63 62 63 63 60 55 50 46 43 40 37 31 30
50 47 54 61 59 54 56 47 57 64 66 69 59 47 33 28 21 11 63 43 42 40 46 41 45 45 43 45 50 58 65 65 62 60 60 58 55 53
54 48 52 50 57 58 61 60 63 74 78 75 62 62 30 14 14 48 67 62 37 8 55 37 37 37 28 39 45 53 57 60 62 63 64 64 63 60
52 47 52 49 51 55 55 53 50 51 61 95 85 62 36 358 52 60 66 76 74 334 75 45 20 26 17 40 46 50 53 55 58 61 60 57 55 53
52 52 54 45 50 59 63 58 49 42 45 56 73 59 57 44 81 105 116 82 46 21 57 74 11 16 15 18 33 45 52 52 47 44 46 50 58 60
53 49 52 57 52 62 66 61 48 34 43 53 56 55 53 55 69 76 67 77 47 357 14 77 32 12 7 4 19 37 43 42 36 31 34 39 47 53
52 43 48 59 57 60 64 65 55 25 26 35 38 34 36 37 42 68 104 102 91 10 341 61 42 55 23 340 353 6 17 21 24 23 27 28 33 50
65 45 37 52 57 57 60 62 60 60 49 52 45 32 26 26 25 31 53 103 106 50 285 88 71 55 98 315 324 331 1 355 6 358 354 6 34 77
82 56 47 54 54 51 52 54 59 62 57 54 46 31 24 16 9 18 32 46 76 154 286 101 108 119 103 41 316 321 332 333 4 6 6 14 32 49
76 70 61 57 51 46 48 54 55 57 57 57 48 23 358 355 13 21 22 29 30 27 29 54 95 100 100 129 281 316 328 326 343 21 26 27 24 37
61 54 54 56 54 47 41 40 44 55 71 66 38 10 12 23 24 24 29 24 31 6 4 24 47 86 81 63 87 351 336 311 321 346 38 14 6 14
75 53 48 45 44 38 35 33 34 39 44 36 39 31 25 25 14 14 33 40 44 11 353 356 14 44 76 99 55 357 345 335 318 345 39 13 335 320
83 70 62 62 63 59 53 39 32 32 31 41 43 38 32 26 13 9 26 43 39 10 353 342 5 16 15 5 45 111 332 317 327 350 57 78 319 315
85 82 81 81 74 70 66 59 38 20 32 44 44 33 30 28 27 18 17 24 19 4 340 341 21 65 45 338 320 357 191 304 339 354 348 199 244 277
82 92 91 88 84 79 72 58 42 34 36 34 31 26 28 34 30 21 20 27 17 4 352 347 354 27 187 220 265 310 342 280 289 309 306 325 306 313
84 86 89 93 89 84 74 62 57 48 41 37 30 25 21 35 34 23 20 21 28 16 354 321 299 308 211 67 9 319 315 327 273 207 214 275 320 327
97 91 81 84 89 85 80 72 60 48 40 35 21 17 16 25 25 20 21 18 356 335 316 311 328 359 35 42 303 292 304 320 336 340 284 195 182 211
117 104 95 93 89 87 85 79 73 53 36 28 19 12 17 16 2 7 11 12 359 347 343 334 341 357 354 334 304 301 309 315 326 336 323 314 290 260